Location: Hurstbourne Priors
(51.2000°N, 1.3667°W)
Time: 12:54:57
(UTC+00:00)

Meteor 2-10 Rocket - Pass Details

Date: 09 April 2020
Orbit: 734 x 884 km, 81.2° (Epoch: 27 May)

Event Time Altitude Azimuth Distance (km) Brightness Sun altitude
Exits shadow 22:14:53 33° 231° (SW) 1,310 4.6 -26.1°
Maximum altitude 22:16:59 52° 288° (WNW) 990 4.2 -26.2°
Drops below altitude 10° 22:22:22 10° 5° (N) 2,440 6.8 -26.6°
Sets 22:24:54 0° 11° (N) 3,402 7.6 -26.8°
